When you browse on this site, cookies collect data to enhance your experience and personalize the content and advertising you see.
Visit our Privacy Policy to learn more. By continuing to use the site, you agree to this use of cookies and data.
  • In Czech Republic
  • List of Countries
  • For 7 days
  • Water Temperature
  • Satellite Maps
  • Weather Map
  • Weather Widgets
  • user-avatar
    Login

    Hourly Weather Tuxtepec

    Today, 20 March, Wednesday

    Time Temperature Precipitation Wind Pressure Humidity
    00:00 +22°C° 0 mm 1 mps 761 mmHg 87%
    01:00 +22°C° 0 mm 1 mps 760 mmHg 88%
    02:00 +21°C° 0 mm 1 mps 760 mmHg 89%
    03:00 +21°C° 0 mm 1 mps 760 mmHg 89%
    04:00 +21°C° 0 mm 1 mps 760 mmHg 89%
    05:00 +21°C° 0 mm 1 mps 760 mmHg 88%
    06:00 +21°C° 0 mm 1 mps 760 mmHg 87%
    07:00 +22°C° 0 mm 1 mps 760 mmHg 85%
    08:00 +20°C° 0 mm 0 mps 760 mmHg 83%
    09:00 +21°C° 0 mm 0 mps 761 mmHg 81%
    10:00 +25°C° 0 mm 1 mps 761 mmHg 74%
    11:00 +27°C° 0 mm 1 mps 760 mmHg 66%
    12:00 +29°C° 0 mm 1 mps 760 mmHg 59%
    13:00 +30°C° 0 mm 2 mps 759 mmHg 58%
    14:00 +30°C° 0 mm 2 mps 758 mmHg 56%
    15:00 +31°C° 0 mm 2 mps 757 mmHg 55%
    16:00 +30°C° 0.2 mm 2 mps 757 mmHg 62%
    17:00 +28°C° 0.2 mm 2 mps 758 mmHg 70%
    18:00 +27°C° 0.2 mm 3 mps 758 mmHg 77%
    19:00 +26°C° 0.2 mm 2 mps 759 mmHg 82%
    20:00 +24°C° 0.2 mm 2 mps 759 mmHg 88%
    21:00 +23°C° 0.2 mm 2 mps 760 mmHg 93%
    22:00 +23°C° 0.3 mm 2 mps 761 mmHg 94%
    23:00 +23°C° 0.3 mm 2 mps 761 mmHg 94%

    Tomorrow, 21 March, Thursday

    Time Temperature Precipitation Wind Pressure Humidity
    00:00 +23°C° 0.3 mm 2 mps 761 mmHg 95%
    01:00 +23°C° 0.3 mm 2 mps 761 mmHg 96%
    02:00 +22°C° 0.3 mm 1 mps 760 mmHg 96%
    03:00 +22°C° 0.3 mm 1 mps 760 mmHg 96%
    04:00 +22°C° 0 mm 1 mps 760 mmHg 96%
    05:00 +22°C° 0 mm 1 mps 760 mmHg 96%
    06:00 +22°C° 0 mm 1 mps 760 mmHg 96%
    07:00 +23°C° 0.1 mm 2 mps 761 mmHg 91%
    08:00 +24°C° 0.1 mm 2 mps 761 mmHg 87%
    09:00 +25°C° 0.1 mm 2 mps 762 mmHg 83%
    10:00 +27°C° 0.6 mm 2 mps 762 mmHg 77%
    11:00 +28°C° 0.6 mm 2 mps 761 mmHg 70%
    12:00 +30°C° 0.6 mm 2 mps 761 mmHg 63%
    13:00 +29°C° 0.9 mm 3 mps 760 mmHg 64%
    14:00 +29°C° 0.9 mm 3 mps 759 mmHg 66%
    15:00 +29°C° 0.9 mm 4 mps 758 mmHg 67%
    16:00 +28°C° 1.3 mm 4 mps 759 mmHg 72%
    17:00 +27°C° 1.3 mm 3 mps 759 mmHg 78%
    18:00 +25°C° 1.3 mm 3 mps 759 mmHg 83%
    19:00 +25°C° 0.8 mm 2 mps 760 mmHg 86%
    20:00 +24°C° 0.8 mm 2 mps 761 mmHg 88%
    21:00 +24°C° 0.8 mm 2 mps 762 mmHg 91%
    22:00 +23°C° 0.2 mm 2 mps 762 mmHg 91%
    23:00 +23°C° 0.2 mm 2 mps 762 mmHg 92%

    Day after tomorrow, 22 March, Friday

    Time Temperature Precipitation Wind Pressure Humidity
    00:00 +23°C° 0.2 mm 2 mps 762 mmHg 93%
    01:00 +23°C° 0 mm 2 mps 761 mmHg 93%
    02:00 +22°C° 0 mm 1 mps 761 mmHg 94%
    03:00 +22°C° 0 mm 1 mps 760 mmHg 95%
    04:00 +22°C° 0 mm 1 mps 760 mmHg 95%
    05:00 +22°C° 0 mm 1 mps 761 mmHg 96%
    06:00 +21°C° 0 mm 1 mps 761 mmHg 96%
    07:00 +23°C° 0.1 mm 1 mps 761 mmHg 91%
    08:00 +24°C° 0.1 mm 1 mps 762 mmHg 86%
    09:00 +25°C° 0.1 mm 1 mps 762 mmHg 81%
    10:00 +27°C° 0.1 mm 1 mps 761 mmHg 73%
    11:00 +29°C° 0.1 mm 1 mps 761 mmHg 65%
    12:00 +30°C° 0.1 mm 1 mps 760 mmHg 57%
    13:00 +31°C° 0 mm 1 mps 759 mmHg 54%
    14:00 +31°C° 0 mm 1 mps 758 mmHg 51%
    15:00 +32°C° 0 mm 1 mps 757 mmHg 48%
    16:00 +31°C° 0 mm 1 mps 757 mmHg 53%
    17:00 +30°C° 0 mm 1 mps 757 mmHg 58%
    18:00 +29°C° 0 mm 1 mps 757 mmHg 63%
    19:00 +28°C° 0 mm 1 mps 758 mmHg 68%
    20:00 +26°C° 0 mm 1 mps 759 mmHg 72%
    21:00 +25°C° 0 mm 1 mps 759 mmHg 77%
    22:00 +25°C° 0 mm 1 mps 759 mmHg 79%
    23:00 +25°C° 0 mm 1 mps 759 mmHg 81%

    23 March, Saturday

    Time Temperature Precipitation Wind Pressure Humidity
    00:00 +22°C° 0 mm 0 mps 759 mmHg 83%
    01:00 +22°C° 0 mm 0 mps 759 mmHg 85%
    02:00 +21°C° 0 mm 0 mps 758 mmHg 88%
    03:00 +21°C° 0 mm 0 mps 758 mmHg 91%
    04:00 +20°C° 0 mm 0 mps 758 mmHg 92%
    05:00 +20°C° 0 mm 0 mps 758 mmHg 93%
    06:00 +22°C° 0 mm 1 mps 758 mmHg 93%
    07:00 +24°C° 0 mm 1 mps 759 mmHg 87%
    08:00 +25°C° 0 mm 1 mps 759 mmHg 80%
    09:00 +27°C° 0 mm 2 mps 759 mmHg 74%
    10:00 +28°C° 0 mm 2 mps 759 mmHg 69%
    11:00 +30°C° 0 mm 2 mps 758 mmHg 64%
    12:00 +31°C° 0 mm 2 mps 758 mmHg 60%
    13:00 +32°C° 0 mm 2 mps 757 mmHg 57%
    14:00 +34°C° 0 mm 2 mps 756 mmHg 54%
    15:00 +35°C° 0 mm 2 mps 755 mmHg 52%
    16:00 +34°C° 0 mm 2 mps 755 mmHg 55%
    17:00 +32°C° 0 mm 2 mps 755 mmHg 59%
    18:00 +31°C° 0 mm 1 mps 756 mmHg 63%
    19:00 +29°C° 1.5 mm 1 mps 757 mmHg 72%
    20:00 +27°C° 1.5 mm 1 mps 757 mmHg 82%
    21:00 +25°C° 1.5 mm 1 mps 758 mmHg 91%
    22:00 +24°C° 0.4 mm 1 mps 758 mmHg 92%
    23:00 +24°C° 0.4 mm 1 mps 758 mmHg 93%

    24 March, Sunday

    Time Temperature Precipitation Wind Pressure Humidity
    00:00 +24°C° 0.4 mm 1 mps 759 mmHg 94%
    01:00 +24°C° 0 mm 1 mps 758 mmHg 94%
    02:00 +23°C° 0 mm 1 mps 758 mmHg 94%
    03:00 +21°C° 0 mm 0 mps 757 mmHg 94%
    04:00 +21°C° 0 mm 0 mps 758 mmHg 95%
    05:00 +21°C° 0 mm 0 mps 758 mmHg 95%
    06:00 +21°C° 0 mm 0 mps 758 mmHg 95%
    07:00 +22°C° 0 mm 0 mps 758 mmHg 90%
    08:00 +24°C° 0 mm 0 mps 759 mmHg 85%
    09:00 +27°C° 0 mm 1 mps 759 mmHg 80%
    10:00 +29°C° 0 mm 1 mps 758 mmHg 73%
    11:00 +31°C° 0 mm 1 mps 757 mmHg 65%
    12:00 +33°C° 0 mm 1 mps 757 mmHg 58%
    13:00 +34°C° 0 mm 2 mps 756 mmHg 55%
    14:00 +35°C° 0 mm 2 mps 755 mmHg 51%
    15:00 +36°C° 0 mm 2 mps 754 mmHg 48%
    16:00 +34°C° 0 mm 1 mps 754 mmHg 51%
    17:00 +33°C° 0 mm 1 mps 754 mmHg 55%
    18:00 +33°C° 0 mm 1 mps 754 mmHg 59%
    19:00 +31°C° 0 mm 1 mps 755 mmHg 65%
    20:00 +29°C° 0 mm 1 mps 756 mmHg 70%
    21:00 +27°C° 0 mm 1 mps 757 mmHg 76%
    22:00 +27°C° 0 mm 1 mps 757 mmHg 79%
    23:00 +26°C° 0 mm 1 mps 757 mmHg 81%

    25 March, Monday

    Time Temperature Precipitation Wind Pressure Humidity
    00:00 +26°C° 0 mm 1 mps 757 mmHg 84%
    01:00 +23°C° 0 mm 0 mps 756 mmHg 85%
    02:00 +23°C° 0 mm 0 mps 756 mmHg 87%
    03:00 +23°C° 0 mm 0 mps 755 mmHg 88%
    04:00 +22°C° 0 mm 0 mps 756 mmHg 88%
    05:00 +22°C° 0 mm 0 mps 756 mmHg 88%
    06:00 +24°C° 0 mm 1 mps 756 mmHg 88%
    07:00 +26°C° 0 mm 1 mps 756 mmHg 82%
    08:00 +27°C° 0 mm 1 mps 757 mmHg 76%
    09:00 +29°C° 0 mm 1 mps 757 mmHg 69%
    10:00 +31°C° 0 mm 2 mps 756 mmHg 64%
    11:00 +34°C° 0 mm 2 mps 756 mmHg 58%
    12:00 +35°C° 0 mm 2 mps 755 mmHg 52%
    13:00 +36°C° 0 mm 2 mps 754 mmHg 48%
    14:00 +37°C° 0 mm 2 mps 754 mmHg 45%
    15:00 +38°C° 0 mm 2 mps 753 mmHg 41%
    16:00 +37°C° 0 mm 2 mps 753 mmHg 46%
    17:00 +36°C° 0 mm 2 mps 754 mmHg 50%
    18:00 +34°C° 0 mm 2 mps 754 mmHg 54%
    19:00 +31°C° 0 mm 2 mps 755 mmHg 61%
    20:00 +29°C° 0 mm 2 mps 756 mmHg 68%
    21:00 +27°C° 0 mm 2 mps 757 mmHg 75%
    22:00 +27°C° 0 mm 2 mps 757 mmHg 76%
    23:00 +27°C° 0 mm 2 mps 758 mmHg 77%
    Show more